Location: Oberkirch
(48.5323°N, 8.0787°E)
Time: 21:20:03
(UTC+00:00)

Tiros 1 - Pass Details

Date: 19 February 2026
Orbit: 618 x 649 km, 48.4° (Epoch: 5 March)

Event Time Altitude Azimuth Distance (km) Brightness Sun altitude
Rises 12:06:39 0° 283° (WNW) 2,899 10.5 30.0°
Reaches altitude 10° 12:08:59 10° 279° (W) 1,988 9.7 30.0°
Maximum altitude 12:13:28 58° 201° (SSW) 721 8.7 29.9°
Drops below altitude 10° 12:17:55 10° 122° (ESE) 1,976 10.0 29.8°
Sets 12:20:15 0° 119° (ESE) 2,880 10.7 29.7°
